Temperature
18 18 18 18 18 18 18 18 18 18 18 18 18 18 18 18 18 18 18 18 18 18 18 18 17 17 17 17 17 17 17 17 17 17 17 17 16 16 16 16 16 16 16
18 18 18 18 18 18 18 18 18 18 18 18 18 18 18 18 18 18 18 18 18 18 18 18 18 17 17 17 17 17 17 17 17 17 17 17 16 16 16 16 16 16 16
18 18 18 18 18 18 18 18 18 18 18 18 18 18 18 18 18 18 18 18 18 18 18 18 18 18 17 17 17 17 17 17 17 17 17 16 16 16 16 16 16 16 16
18 18 18 18 18 18 18 18 18 18 18 18 18 18 18 18 18 18 18 18 18 18 18 18 18 18 17 17 17 17 17 17 17 17 16 16 16 16 16 16 16 16 16
18 18 18 18 18 18 18 18 18 18 18 18 18 18 18 18 18 18 18 18 18 18 18 18 18 17 17 17 17 17 17 17 17 16 16 16 16 16 16 16 16 16 16
18 18 18 18 18 18 18 18 18 18 18 18 18 18 18 18 18 18 18 18 18 18 18 18 18 18 17 17 17 17 17 17 17 16 16 16 16 16 16 16 16 16 16
18 18 18 18 18 18 18 18 18 18 18 18 18 18 18 18 18 18 18 18 18 18 18 18 18 17 17 17 17 17 17 17 16 16 16 16 16 16 16 16 16 16 16
18 18 18 18 18 18 18 18 18 18 18 18 18 18 18 18 18 18 18 18 18 18 18 18 17 17 17 17 17 17 17 16 16 16 16 16 16 16 16 16 16 16 16
18 18 18 18 18 18 18 18 18 18 18 18 18 17 17 17 17 18 18 18 18 18 17 17 17 17 17 17 17 17 17 16 16 16 16 16 16 16 16 15 16 15 15
18 18 18 18 18 18 18 18 18 18 18 18 18 17 17 17 17 17 17 17 17 17 17 17 17 17 17 17 17 16 16 16 16 16 16 16 16 16 15 15 15 15 15
19 19 18 18 18 18 18 18 18 18 18 18 18 17 17 17 17 17 17 17 17 17 17 17 17 17 17 16 16 16 16 16 16 16 16 16 15 15 15 15 15 15 15
19 19 18 18 18 18 18 18 18 18 17 17 17 17 17 17 17 17 17 17 17 17 17 17 17 16 16 16 16 16 16 16 16 16 16 16 15 15 15 15 15 15 15
19 19 18 18 18 18 18 18 18 17 17 17 17 17 17 17 17 17 17 16 16 16 16 16 16 16 16 16 16 16 16 16 16 15 15 15 15 15 15 15 15 15 15
19 19 19 19 18 18 18 18 18 18 17 17 17 17 17 17 17 17 16 16 16 16 16 16 16 16 16 16 16 15 15 15 15 15 15 15 15 15 15 15 15 15 15
19 19 19 19 18 18 18 18 18 18 17 17 17 17 17 17 17 17 16 16 16 15 16 16 16 16 16 16 15 15 15 15 15 15 15 15 15 15 15 15 15 14 14
19 18 18 18 18 18 18 18 18 18 17 17 17 17 17 17 17 16 16 16 16 16 15 15 15 15 15 15 15 15 15 15 15 15 15 15 15 14 14 14 14 14 14
19 18 18 18 18 18 18 18 18 17 17 17 17 17 17 16 16 16 16 16 16 16 15 15 15 15 15 15 15 15 15 15 15 14 14 14 14 14 14 14 14 14 14
18 18 18 18 18 18 18 17 17 17 17 17 17 17 16 16 16 16 16 16 16 15 15 15 15 15 15 15 15 15 15 14 14 14 14 14 14 14 14 14 14 14 14
18 18 18 18 18 17 17 17 17 17 17 17 17 16 16 16 16 16 16 16 15 15 15 15 15 15 14 14 14 14 14 14 14 14 14 14 14 14 13 13 13 13 13
18 18 18 18 18 17 17 17 17 17 17 16 16 16 16 16 16 16 15 15 15 15 15 15 15 14 14 14 14 14 14 14 14 14 14 13 13 13 13 13 13 13 13
18 18 18 17 17 17 17 17 17 16 16 16 16 16 16 15 15 15 15 15 15 15 15 15 14 14 14 14 14 13 13 13 13 13 13 13 13 13 13 13 13 13 13
18 17 17 17 17 17 17 17 17 16 16 16 16 16 16 15 15 15 15 15 15 15 15 14 14 14 14 14 13 13 13 13 13 13 13 13 13 12 12 12 12 12 12
18 17 17 17 17 17 17 16 16 16 16 16 16 16 15 15 15 15 15 15 14 14 14 14 14 14 14 13 13 13 13 13 13 12 12 12 12 12 12 12 12 12 12
17 17 17 17 17 16 16 16 16 15 15 15 15 15 15 15 15 14 14 14 14 14 14 14 14 14 13 13 13 13 13 12 12 12 12 12 12 12 12 12 12 11 11
17 17 17 16 16 16 16 16 16 15 15 15 15 15 15 15 15 14 14 14 14 14 14 13 13 13 13 13 13 12 12 12 12 12 12 11 12 11 11 11 11 11 11
17 17 16 16 16 16 16 15 15 15 15 15 15 15 15 14 14 14 14 14 13 13 13 13 13 13 13 13 12 12 12 12 12 11 12 11 11 11 11 11 11 11 11
Wind_Speed
2 2 1 1 1 1 2 1 1 1 1 2 2 3 4 5 6 6 7 11 12 11 10 10 10 10 10 10 9 9 8 8 8 9 9 9 9 9 10 12 12 13 13
3 3 2 1 1 1 2 2 1 1 1 2 1 2 4 5 6 6 7 8 10 11 11 10 10 10 10 10 9 8 8 8 9 9 9 9 9 9 9 10 11 12 12
4 3 2 1 1 2 2 2 2 1 1 1 1 1 2 4 5 6 6 7 8 9 10 10 11 11 10 10 9 9 9 9 9 9 9 8 8 8 9 9 10 10 11
5 3 2 1 1 2 2 2 1 1 1 1 0 1 1 2 4 5 6 6 6 7 9 10 11 11 11 10 10 10 10 10 9 9 8 8 8 8 8 8 9 10 10
4 3 2 1 1 1 1 1 1 1 1 1 1 1 0 1 2 3 3 5 6 7 7 9 11 11 11 11 11 11 10 10 9 9 9 9 9 9 9 9 9 9 9
4 3 2 1 1 1 1 1 1 0 0 0 1 1 1 1 1 1 2 3 4 6 7 8 8 9 11 11 11 11 10 10 9 9 9 9 9 9 9 10 10 10 9
3 3 2 1 1 1 0 0 1 1 1 1 2 3 3 2 1 2 2 2 2 4 5 6 6 7 7 10 11 11 10 9 9 9 9 8 9 9 9 9 9 10 10
4 3 2 1 1 1 1 1 1 1 1 1 1 1 3 4 3 2 1 1 2 2 3 4 5 6 5 5 6 7 8 7 7 7 7 7 8 9 10 10 9 10 9
4 3 3 2 2 2 1 0 1 1 1 1 1 2 2 2 2 3 2 1 1 1 1 2 4 5 5 5 5 5 7 6 6 6 7 7 7 7 7 8 9 9 9
3 3 2 2 2 2 1 1 1 1 1 1 1 1 2 3 1 2 3 3 2 1 2 1 2 3 4 4 4 5 6 6 7 6 6 5 5 6 6 7 8 9 10
2 2 2 2 2 2 2 1 1 1 1 1 1 1 1 0 1 2 3 4 3 2 2 1 1 2 4 4 4 5 6 6 6 6 6 6 6 6 7 6 7 8 9
1 1 2 2 2 2 2 2 2 1 1 1 1 1 1 1 1 2 2 3 3 3 2 1 1 1 3 3 5 5 6 6 6 6 6 6 6 6 7 7 7 7 8
1 2 1 2 2 2 2 2 1 1 1 1 1 1 1 2 2 2 2 2 2 3 2 2 2 2 2 2 4 6 6 6 6 6 6 6 6 6 6 6 7 7 8
3 2 2 2 2 2 2 1 1 1 0 0 1 1 1 1 1 2 2 2 1 2 2 3 2 2 2 2 3 4 4 5 6 7 7 7 7 6 6 6 7 7 7
2 2 2 2 2 2 2 1 1 1 0 0 1 1 0 1 0 1 1 2 3 2 3 3 2 2 2 2 3 2 3 4 4 6 6 6 6 6 6 7 7 7 7
2 2 2 2 2 2 2 2 1 1 1 0 0 0 1 1 1 1 0 0 2 3 2 2 2 3 2 2 3 2 3 3 2 3 4 4 4 5 6 7 7 7 7
2 2 2 2 2 2 2 1 1 1 0 1 1 0 1 1 1 1 0 0 0 1 2 3 2 2 1 1 2 1 2 2 2 2 3 4 4 5 5 6 7 7 8
3 3 2 2 2 2 2 2 1 1 1 1 1 1 2 1 1 1 1 1 1 1 2 2 2 1 2 2 1 1 1 2 2 3 4 4 5 5 5 5 5 6 7
3 2 2 3 3 2 2 2 2 1 2 2 2 1 2 0 1 1 1 1 1 1 1 2 2 1 1 1 1 1 1 2 2 3 4 4 5 5 5 5 5 5 6
3 3 3 3 3 3 2 2 2 2 1 1 1 1 1 1 2 2 2 2 1 0 0 1 1 1 1 1 0 1 2 2 2 3 3 4 4 4 4 5 5 5 6
3 3 3 2 2 3 2 3 3 2 2 1 1 1 1 2 2 2 1 1 1 1 1 1 1 1 1 1 1 1 2 2 3 2 2 3 2 3 4 5 5 6 6
3 3 3 3 3 3 3 4 3 3 3 2 2 2 2 2 1 1 1 1 1 2 2 2 2 2 3 2 1 1 1 2 3 2 1 3 2 3 3 4 5 6 7
3 3 3 3 3 3 4 4 4 3 3 3 3 2 2 2 1 1 2 2 2 2 4 4 3 4 3 4 3 2 2 2 3 3 1 3 2 3 3 4 5 6 7
4 4 4 3 3 3 4 4 4 3 3 3 3 3 3 3 2 1 2 2 3 3 3 3 4 6 5 4 4 4 3 2 2 2 1 2 2 2 3 3 5 6 6
4 4 3 4 3 3 3 4 4 2 2 3 4 3 3 3 3 2 2 3 4 4 4 4 5 5 4 3 3 1 1 0 2 3 1 1 2 2 2 2 4 6 6
4 3 3 3 4 4 5 5 4 2 2 3 3 3 4 4 4 3 3 3 4 5 4 3 3 3 2 2 2 3 3 2 1 3 2 1 1 1 2 2 2 4 4
Wind_Direction
115 128 131 142 145 163 153 148 115 116 148 154 170 165 166 171 174 173 187 195 198 200 202 204 207 209 211 212 212 214 219 224 225 227 230 231 233 233 231 230 228 225 221
128 126 107 94 81 131 155 144 124 117 137 143 163 165 163 172 177 180 188 194 199 201 207 211 209 208 210 211 215 218 224 229 232 233 234 234 234 234 234 231 228 224 219
125 122 102 84 93 101 103 97 79 77 70 114 194 208 172 182 182 185 191 196 202 207 211 212 212 213 215 215 216 220 226 230 233 233 233 233 233 232 232 233 230 226 221
124 115 98 95 97 86 77 87 80 62 29 38 326 267 195 185 185 191 196 199 203 211 214 218 216 218 220 221 223 226 229 231 232 232 232 231 231 233 234 234 231 226 221
124 122 126 142 83 66 58 82 74 102 56 345 313 328 300 216 213 189 190 198 205 208 214 222 222 223 224 227 229 231 233 232 232 231 233 233 232 232 232 229 226 222 219
136 133 137 128 84 76 49 52 76 60 136 278 348 4 318 253 246 227 219 204 208 212 215 218 221 226 229 230 231 232 235 235 233 231 232 233 234 233 233 230 227 221 216
155 144 137 123 100 116 154 86 103 57 0 20 42 4 348 337 299 248 237 220 224 224 213 214 216 221 229 235 237 237 237 236 236 237 237 236 237 235 232 230 228 222 216
177 163 155 160 132 126 78 61 94 75 334 32 98 61 359 348 340 311 287 224 247 228 212 208 200 208 215 219 226 229 233 233 234 237 239 237 237 236 233 230 229 223 215
183 167 159 160 155 148 156 169 138 135 255 309 128 138 146 246 310 329 326 313 282 261 242 208 201 212 214 218 222 227 229 230 236 239 238 235 236 238 234 227 225 218 216
186 179 167 167 170 164 175 220 169 169 161 272 293 237 188 177 183 306 324 326 321 304 276 256 211 203 204 205 215 225 231 236 239 242 243 237 235 236 234 229 227 221 216
214 195 180 169 178 182 193 222 246 183 175 190 225 248 255 234 168 194 284 312 326 306 284 271 226 214 209 210 216 230 236 238 237 241 243 242 237 236 232 230 227 223 220
245 237 179 173 182 190 200 217 229 226 232 213 214 191 179 193 222 195 236 276 291 299 304 300 268 231 224 218 230 236 235 233 234 235 239 240 233 229 227 226 223 223 222
223 242 210 192 190 200 205 202 202 232 244 239 237 232 221 226 206 184 199 256 286 301 313 313 285 245 232 222 239 243 237 232 231 231 234 232 225 224 226 229 224 223 222
215 213 201 198 199 197 206 186 213 247 255 261 304 264 245 260 220 190 189 193 287 312 314 289 302 274 251 235 251 254 243 236 231 227 230 228 226 226 229 232 229 225 222
209 208 200 184 200 186 172 156 188 248 175 316 302 316 316 307 324 245 184 173 175 243 284 283 289 286 266 253 271 252 241 247 237 227 228 227 227 230 232 230 235 229 223
211 203 200 175 184 180 166 155 191 245 138 270 262 7 344 313 320 323 264 196 171 184 243 269 263 268 264 287 285 247 240 258 257 234 222 218 224 231 232 230 237 231 228
199 194 192 175 186 196 192 174 207 205 183 288 310 348 295 298 340 331 328 18 171 171 230 283 280 288 287 297 318 294 287 270 264 258 232 226 230 235 238 238 231 230 226
205 201 183 173 185 192 195 188 209 239 207 241 277 302 293 304 324 299 299 289 263 215 201 256 289 296 274 273 271 298 306 308 279 281 260 243 238 241 245 240 235 231 225
205 193 167 171 186 194 196 197 194 212 216 219 230 230 257 250 304 292 285 279 269 281 207 203 267 285 295 306 323 319 334 323 312 301 283 270 258 255 253 247 241 234 224
193 190 181 185 189 190 193 198 197 207 224 236 229 222 239 223 242 262 271 269 259 264 227 194 262 291 296 295 7 320 327 328 318 310 298 288 283 275 266 256 242 229 220
200 187 182 193 197 197 210 202 199 202 205 224 249 243 248 253 258 247 264 255 226 213 214 220 254 303 299 299 272 278 296 310 312 296 312 306 295 284 273 266 251 237 227
195 180 188 193 209 230 221 202 190 202 200 200 230 257 266 270 286 301 312 282 210 200 209 213 232 246 260 248 237 242 277 325 306 289 306 310 300 287 271 252 253 247 237
190 194 204 199 212 227 214 206 197 193 205 215 221 235 268 294 281 282 304 323 312 260 209 204 223 238 238 228 209 228 239 249 265 268 272 299 308 291 272 263 267 260 244
192 205 210 208 212 236 218 210 201 201 211 227 225 217 226 262 268 252 261 292 291 287 264 234 227 240 239 227 208 208 216 244 295 294 211 268 292 280 285 276 271 265 248
194 206 207 205 209 239 226 219 207 202 218 240 243 237 227 242 264 245 230 263 286 290 289 276 254 253 246 233 207 159 170 97 311 293 247 212 259 292 297 282 270 265 255
200 204 214 217 214 231 237 233 218 197 221 249 260 254 243 248 260 249 227 232 258 276 294 307 305 297 274 242 198 187 189 194 265 281 262 207 253 300 307 288 265 259 261
Height
1539 1540 1540 1541 1541 1541 1542 1542 1542 1542 1542 1542 1543 1543 1543 1543 1544 1544 1544 1544 1544 1545 1545 1545 1544 1544 1544 1544 1544 1544 1544 1544 1544 1544 1544 1543 1543 1543 1543 1543 1544 1545 1546
1541 1541 1542 1542 1542 1542 1543 1543 1543 1542 1542 1543 1543 1543 1543 1543 1544 1543 1543 1544 1544 1544 1544 1544 1543 1543 1543 1543 1543 1542 1542 1542 1542 1541 1541 1541 1541 1541 1541 1541 1542 1542 1543
1542 1543 1543 1543 1543 1543 1543 1543 1543 1543 1543 1543 1543 1543 1543 1543 1543 1543 1543 1543 1543 1543 1543 1543 1542 1542 1542 1541 1541 1541 1540 1540 1540 1539 1539 1538 1538 1538 1539 1539 1539 1540 1540
1544 1544 1544 1544 1544 1544 1544 1543 1543 1543 1543 1543 1542 1542 1542 1542 1542 1542 1542 1542 1542 1542 1542 1542 1541 1541 1540 1540 1539 1539 1538 1538 1537 1537 1537 1536 1536 1536 1536 1537 1537 1537 1538
1545 1545 1545 1545 1545 1544 1544 1544 1544 1543 1543 1542 1542 1542 1542 1542 1542 1542 1541 1541 1541 1541 1541 1541 1540 1539 1539 1538 1538 1537 1536 1536 1535 1535 1534 1534 1534 1533 1534 1534 1534 1535 1535
1545 1545 1545 1545 1545 1545 1544 1544 1544 1543 1543 1542 1542 1541 1541 1541 1541 1541 1540 1540 1540 1540 1540 1539 1539 1538 1537 1537 1536 1535 1535 1534 1533 1532 1532 1531 1531 1531 1531 1531 1531 1532 1532
1546 1546 1545 1545 1545 1544 1544 1544 1544 1543 1542 1542 1541 1541 1541 1540 1540 1539 1539 1539 1538 1538 1538 1537 1537 1536 1535 1535 1534 1534 1533 1532 1531 1530 1530 1529 1529 1528 1528 1528 1528 1529 1529
1546 1546 1545 1545 1545 1544 1544 1543 1543 1542 1542 1541 1541 1540 1540 1540 1539 1539 1538 1538 1537 1537 1536 1535 1534 1534 1533 1533 1532 1531 1530 1529 1529 1528 1527 1526 1526 1526 1525 1525 1525 1526 1526
1546 1545 1545 1545 1544 1544 1543 1543 1542 1541 1541 1541 1540 1540 1539 1538 1538 1537 1537 1536 1536 1535 1534 1533 1533 1532 1531 1531 1530 1529 1528 1527 1526 1525 1524 1524 1523 1523 1523 1522 1522 1523 1523
1545 1544 1544 1544 1544 1543 1543 1542 1541 1541 1540 1539 1539 1539 1539 1538 1537 1536 1536 1535 1534 1533 1533 1532 1531 1530 1529 1528 1528 1527 1526 1524 1523 1522 1522 1521 1520 1520 1520 1520 1520 1520 1521
1544 1544 1544 1543 1543 1542 1542 1541 1540 1539 1539 1538 1538 1537 1537 1536 1536 1535 1534 1533 1532 1532 1531 1530 1529 1528 1528 1527 1526 1524 1523 1522 1521 1520 1519 1518 1518 1517 1517 1517 1517 1518 1518
1543 1543 1543 1542 1542 1541 1541 1540 1539 1538 1537 1537 1536 1536 1535 1534 1534 1533 1532 1531 1530 1530 1529 1529 1528 1527 1526 1525 1524 1522 1521 1520 1519 1517 1516 1516 1515 1515 1515 1515 1515 1515 1515
1542 1542 1542 1541 1541 1540 1539 1539 1538 1537 1536 1535 1535 1534 1534 1533 1533 1532 1531 1530 1529 1528 1527 1527 1526 1525 1524 1523 1521 1520 1519 1518 1516 1515 1514 1513 1512 1512 1512 1512 1512 1512 1513
1541 1541 1541 1540 1539 1539 1538 1538 1537 1536 1535 1534 1533 1533 1532 1531 1531 1530 1529 1528 1527 1526 1525 1525 1524 1523 1522 1521 1520 1519 1517 1515 1514 1513 1512 1511 1510 1510 1510 1510 1510 1510 1510
1540 1540 1539 1539 1538 1537 1537 1536 1535 1534 1533 1533 1532 1531 1530 1530 1529 1528 1527 1526 1526 1524 1523 1522 1522 1521 1520 1519 1518 1517 1515 1513 1512 1511 1510 1509 1508 1508 1508 1507 1507 1507 1508
1539 1538 1538 1537 1537 1536 1535 1534 1533 1532 1532 1531 1531 1530 1529 1528 1527 1526 1525 1524 1524 1523 1521 1520 1519 1519 1518 1517 1516 1514 1513 1512 1510 1509 1508 1507 1506 1506 1505 1505 1505 1505 1505
1537 1537 1536 1536 1535 1534 1534 1533 1532 1531 1530 1529 1529 1528 1527 1526 1525 1524 1523 1522 1522 1521 1519 1518 1518 1517 1516 1515 1514 1512 1511 1510 1508 1507 1506 1505 1504 1503 1502 1502 1502 1502 1502
1535 1535 1534 1534 1533 1533 1532 1531 1530 1530 1529 1528 1527 1526 1525 1524 1523 1522 1521 1520 1519 1519 1518 1516 1515 1515 1514 1513 1511 1510 1509 1508 1507 1505 1504 1503 1502 1501 1500 1500 1499 1499 1499
1532 1532 1532 1532 1531 1531 1530 1529 1529 1528 1527 1526 1525 1524 1523 1522 1521 1520 1519 1518 1517 1516 1516 1514 1513 1512 1511 1511 1510 1509 1508 1506 1505 1504 1502 1501 1500 1499 1498 1497 1496 1496 1495
1530 1530 1530 1529 1529 1528 1528 1527 1526 1526 1525 1524 1523 1522 1521 1520 1519 1518 1517 1516 1515 1514 1513 1512 1511 1510 1509 1508 1507 1506 1505 1504 1503 1502 1500 1499 1497 1496 1495 1494 1493 1493 1492
1528 1528 1528 1527 1527 1526 1525 1525 1524 1523 1522 1521 1521 1520 1519 1518 1517 1516 1515 1513 1512 1511 1510 1509 1508 1507 1506 1505 1505 1504 1503 1502 1500 1499 1497 1496 1495 1493 1492 1491 1491 1490 1490
1525 1525 1525 1525 1524 1524 1523 1522 1521 1521 1520 1519 1518 1517 1516 1515 1514 1513 1512 1511 1510 1509 1508 1507 1506 1504 1504 1503 1502 1502 1501 1499 1497 1497 1495 1493 1492 1491 1490 1489 1488 1487 1487
1522 1522 1522 1522 1521 1521 1520 1520 1519 1518 1517 1517 1516 1514 1513 1513 1512 1511 1509 1508 1507 1507 1506 1505 1503 1502 1501 1501 1500 1499 1498 1497 1496 1495 1493 1490 1489 1488 1487 1486 1485 1484 1483
1519 1519 1519 1519 1518 1518 1518 1517 1516 1515 1514 1514 1513 1512 1511 1510 1509 1508 1507 1505 1504 1504 1503 1502 1501 1500 1499 1498 1497 1497 1495 1494 1494 1493 1491 1489 1487 1486 1485 1484 1483 1482 1481
1516 1516 1516 1515 1515 1515 1515 1514 1514 1513 1511 1510 1510 1509 1508 1507 1506 1505 1504 1503 1502 1501 1501 1500 1499 1498 1497 1496 1495 1493 1492 1491 1490 1489 1489 1487 1485 1484 1482 1481 1481 1480 1478
1513 1513 1513 1512 1512 1511 1511 1511 1511 1509 1508 1507 1506 1506 1505 1504 1504 1502 1501 1500 1499 1498 1498 1496 1495 1495 1494 1492 1492 1491 1490 1489 1487 1486 1485 1484 1482 1481 1479 1479 1478 1477 1476